Location: Bakhuizen
(52.8696°N, 5.4575°E)
Time: 04:32:35
(UTC+00:00)

Nimbus 7 Rocket - Pass Details

Date: 26 September 2021
Orbit: 922 x 965 km, 99.4° (Epoch: 17 October)

Event Time Altitude Azimuth Distance (km) Brightness Sun altitude
Rises 01:59:29 0° 10° (N) 3,582 8.2 -29.8°
Reaches altitude 10° 02:02:58 10° 349° (N) 2,638 7.1 -29.4°
Maximum altitude 02:06:08 15° 316° (NW) 2,284 6.4 -29.1°
Enters shadow 02:06:31 15° 312° (NW) 2,290 6.4 -29.0°
